Flag for Germany Weather past 2 weeks in Bremerhaven, Bremen, Germany

Now
77 °F

Partly sunny.


Feels Like: 79 °F
Forecast: 59 / 88 °F
Wind: 7 mph from North

Location: Nordholz

Current Time: Jul 3, 2015 at 3:02:28 PM

Latest Report: Jul 3, 2015 at 2:20 PM


Visibility: N/A

Pressure: 30.27 "Hg

Humidity: 61%

Dew point: 63 °F

Location of BremerhavenLocation

Historic Weather in Bremerhaven — Graph

°F

Bremerhaven temperature yesterday

Maximum temperature yesterday: 90 °F (at 3:20 PM)
Minimum temperature yesterday: 63 °F (at 5:20 AM)
Average temperature yesterday: 77 °F

Past Weeks' High & Low Weather Summary

 TemperatureHumidityPressure
High90 °F (Jul 2, 3:20 PM)100% (Jun 22, 4:20 AM)30.27 "Hg (Jun 22, 4:20 AM)
Low45 °F (Jun 21, 2:20 AM)35% (Jul 2, 2:20 PM)29.65 "Hg (Jun 22, 7:20 PM)
Average60 °F75%30.03 "Hg
* Reported Jun 18 1:20 PM — Jul 3 1:20 PM, Bremerhaven, Weather by CustomWeather, © 2015

Note: Actual official high and low records may vary slightly from our data, if they occured in-between our weather recording intervals... More about our weather records

Advertising

Bremerhaven weather history for previous 24 hours

 ConditionsComfort  
Time TempWeatherWind HumidityBarometerVisibility
1:20 PM
Fri, Jul 3
75 °FBroken clouds.10 mph69%30.27 "HgN/A
12:20 PM77 °FBroken clouds.12 mph69%30.27 "HgN/A
11:20 AM77 °FBroken clouds.8 mph65%30.24 "HgN/A
10:20 AM77 °FPartly sunny.8 mph65%30.24 "HgN/A
9:20 AM73 °FPartly sunny.2 mph69%30.24 "HgN/A
8:20 AM68 °FBroken clouds.8 mph83%30.24 "HgN/A
7:20 AM66 °FPartly sunny.10 mph88%30.18 "HgN/A
6:20 AM64 °FSprinkles. Partly sunny.8 mph94%30.21 "HgN/A
5:20 AM68 °FThunderstorms. Partly cloudy.9 mph73%30.24 "Hg6 mi
4:46 AM70 °FThundershowers. Passing clouds.14 mph69%30.21 "HgN/A
4:20 AM72 °FPassing clouds.18 mph65%30.21 "HgN/A
3:20 AM70 °FPassing clouds.7 mph64%30.21 "HgN/A
2:20 AM70 °FPassing clouds.6 mph60%30.18 "HgN/A
1:20 AM72 °FPassing clouds.8 mph53%30.15 "HgN/A
12:20 AM73 °FPassing clouds.6 mph50%30.15 "HgN/A
11:20 PM
Thu, Jul 2
75 °FPassing clouds.9 mph50%30.12 "HgN/A
10:20 PM77 °FPassing clouds.8 mph51%30.12 "HgN/A
9:20 PM81 °FPassing clouds.8 mph45%30.12 "HgN/A
8:20 PM84 °FPassing clouds.10 mph40%30.09 "HgN/A
8:04 PM86 °FPassing clouds.9 mph40%30.09 "HgN/A
7:20 PM88 °FPleasantly warm.9 mph38%30.12 "HgN/A
6:20 PM90 °FHot.10 mph36%30.12 "HgN/A
5:20 PM90 °FHot.15 mph36%30.09 "HgN/A
4:20 PM90 °FHot.10 mph36%30.12 "HgN/A
3:20 PM90 °FHot.13 mph36%30.12 "HgN/A
Weather by CustomWeather, © 2015

See weather overviewHow to use our weather pages